| time (UTC) | temp C | wind direction | speed KPH | gust KPH | rain 1hr cm | rain 24hr cm | rain mn cm | humidity % | barometer mb |
| 20260505004007 | 25 | 294 | 4.8 | 16.1 | 0.00 | 0.00 | 0.00 | 39 | 1007.3 |
| 20260505003008 | 26 | 304 | 4.8 | 19.3 | 0.00 | 0.00 | 0.00 | 40 | 1007.2 |
| 20260505002007 | 26 | 288 | 11.3 | 19.3 | 0.00 | 0.00 | 0.00 | 39 | 1007.2 |
| 20260505001007 | 26 | 271 | 9.7 | 19.3 | 0.00 | 0.00 | 0.00 | 37 | 1007.2 |
| 20260505000007 | 26 | 284 | 8.0 | 16.1 | 0.00 | 0.00 | 0.00 | 37 | 1007.4 |
| 20260504235008 | 26 | 301 | 6.4 | 14.5 | 0.00 | 0.00 | 0.00 | 38 | 1007.4 |
| 20260504234007 | 26 | 280 | 4.8 | 16.1 | 0.00 | 0.00 | 0.00 | 36 | 1007.4 |
| 20260504233006 | 27 | 298 | 6.4 | 19.3 | 0.00 | 0.00 | 0.00 | 35 | 1007.4 |
| 20260504232008 | 27 | 301 | 8.0 | 19.3 | 0.00 | 0.00 | 0.00 | 35 | 1007.4 |
| 20260504231008 | 27 | 308 | 9.7 | 20.9 | 0.00 | 0.00 | 0.00 | 32 | 1007.4 |
| 20260504230006 | 27 | 280 | 8.0 | 19.3 | 0.00 | 0.00 | 0.00 | 33 | 1007.7 |
| 20260504225007 | 27 | 300 | 8.0 | 16.1 | 0.00 | 0.00 | 0.00 | 36 | 1007.7 |
| 20260504224006 | 27 | 274 | 9.7 | 19.3 | 0.00 | 0.00 | 0.00 | 36 | 1007.7 |
| 20260504223007 | 27 | 267 | 6.4 | 19.3 | 0.00 | 0.00 | 0.00 | 38 | 1007.8 |
| 20260504222006 | 27 | 275 | 12.9 | 19.3 | 0.00 | 0.00 | 0.00 | 35 | 1008.1 |
| 20260504221007 | 27 | 296 | 11.3 | 19.3 | 0.00 | 0.00 | 0.00 | 37 | 1008.1 |
| 20260504220006 | 27 | 276 | 4.8 | 24.1 | 0.00 | 0.00 | 0.00 | 35 | 1008.1 |
| 20260504215007 | 27 | 300 | 6.4 | 19.3 | 0.00 | 0.00 | 0.00 | 36 | 1008.1 |
| 20260504214006 | 27 | 263 | 8.0 | 19.3 | 0.00 | 0.00 | 0.00 | 36 | 1008.1 |
| 20260504212007 | 27 | 307 | 9.7 | 20.9 | 0.00 | 0.00 | 0.00 | 36 | 1008.2 |
| 20260504211008 | 27 | 288 | 9.7 | 16.1 | 0.00 | 0.00 | 0.00 | 38 | 1008.3 |
| 20260504204006 | 26 | 327 | 9.7 | 19.3 | 0.00 | 0.00 | 0.00 | 35 | 1008.4 |
| 20260504203007 | 27 | 288 | 11.3 | 19.3 | 0.00 | 0.00 | 0.00 | 37 | 1008.4 |
| 20260504202007 | 27 | 316 | 9.7 | 19.3 | 0.00 | 0.00 | 0.00 | 40 | 1008.5 |
| 20260504201006 | 26 | 274 | 8.0 | 12.9 | 0.00 | 0.00 | 0.00 | 43 | 1008.5 |
| 20260504200008 | 26 | 330 | 9.7 | 19.3 | 0.00 | 0.00 | 0.00 | 41 | 1008.7 |
| 20260504195005 | 26 | 292 | 8.0 | 19.3 | 0.00 | 0.00 | 0.00 | 44 | 1008.7 |
| 20260504194006 | 26 | 269 | 9.7 | 19.3 | 0.00 | 0.00 | 0.00 | 42 | 1008.8 |
| 20260504192006 | 25 | 269 | 11.3 | 19.3 | 0.00 | 0.00 | 0.00 | 43 | 1008.9 |
| 20260504191007 | 25 | 267 | 8.0 | 19.3 | 0.00 | 0.00 | 0.00 | 42 | 1008.9 |
| 20260504190006 | 25 | 274 | 4.8 | 14.5 | 0.00 | 0.00 | 0.00 | 41 | 1008.9 |
| 20260504184006 | 25 | 274 | 8.0 | 16.1 | 0.00 | 0.00 | 0.00 | 43 | 1009.1 |
| 20260504183006 | 25 | 337 | 3.2 | 11.3 | 0.00 | 0.00 | 0.00 | 43 | 1009.1 |
| 20260504182006 | 25 | 322 | 6.4 | 9.7 | 0.00 | 0.00 | 0.00 | 42 | 1009.1 |
| 20260504181007 | 25 | 294 | 8.0 | 16.1 | 0.00 | 0.00 | 0.00 | 45 | 1009.0 |
| 20260504180006 | 25 | 327 | 4.8 | 16.1 | 0.00 | 0.00 | 0.00 | 44 | 1009.0 |
| 20260504175007 | 24 | 313 | 6.4 | 16.1 | 0.00 | 0.00 | 0.00 | 44 | 1009.0 |
| 20260504174006 | 24 | 354 | 3.2 | 16.1 | 0.00 | 0.00 | 0.00 | 49 | 1009.0 |
| 20260504173007 | 23 | 272 | 6.4 | 16.1 | 0.00 | 0.00 | 0.00 | 51 | 1009.1 |
| 20260504172006 | 23 | 284 | 4.8 | 8.0 | 0.00 | 0.00 | 0.00 | 54 | 1009.1 |
| 20260504171007 | 22 | 279 | 6.4 | 9.7 | 0.00 | 0.00 | 0.00 | 54 | 1009.1 |
| 20260504151006 | 12 | 337 | 0.0 | 0.0 | 0.00 | 0.00 | 0.00 | 91 | 1008.9 |
| 20260504082005 | 12 | 147 | 0.0 | 1.6 | 0.00 | 0.00 | 0.00 | 90 | 1007.9 |
| 20260504081006 | 12 | 148 | 1.6 | 4.8 | 0.00 | 0.00 | 0.00 | 90 | 1007.9 |
| 20260504050004 | 16 | 324 | 0.0 | 0.0 | 0.00 | 0.00 | 0.00 | 79 | 1007.9 |
| 20260504045005 | 17 | 324 | 0.0 | 0.0 | 0.00 | 0.00 | 0.00 | 77 | 1007.9 |
| 20260504043005 | 17 | 324 | 0.0 | 0.0 | 0.00 | 0.00 | 0.00 | 74 | 1007.4 |
| 20260504042004 | 18 | 324 | 0.0 | 0.0 | 0.00 | 0.00 | 0.00 | 73 | 1007.4 |
| 20260504041003 | 18 | 63 | 0.0 | 3.2 | 0.00 | 0.00 | 0.00 | 70 | 1007.4 |
| 20260504040005 | 19 | 63 | 0.0 | 3.2 | 0.00 | 0.00 | 0.00 | 68 | 1007.4 |
| 20260504035008 | 20 | 63 | 1.6 | 3.2 | 0.00 | 0.00 | 0.00 | 65 | 1007.4 |
| 20260504034007 | 20 | 285 | 3.2 | 4.8 | 0.00 | 0.00 | 0.00 | 62 | 1007.2 |
| 20260504033008 | 21 | 301 | 1.6 | 4.8 | 0.00 | 0.00 | 0.00 | 60 | 1007.2 |
| 20260504032008 | 22 | 293 | 1.6 | 11.3 | 0.00 | 0.00 | 0.00 | 57 | 1006.9 |
| 20260504030007 | 22 | 273 | 1.6 | 11.3 | 0.00 | 0.00 | 0.00 | 53 | 1006.9 |
| 20260504025008 | 23 | 284 | 4.8 | 9.7 | 0.00 | 0.00 | 0.00 | 51 | 1006.9 |
| 20260504024008 | 24 | 282 | 1.6 | 4.8 | 0.00 | 0.00 | 0.00 | 49 | 1006.9 |
| 20260504023008 | 25 | 315 | 1.6 | 9.7 | 0.00 | 0.00 | 0.00 | 46 | 1006.9 |
| 20260504022007 | 25 | 313 | 3.2 | 11.3 | 0.00 | 0.00 | 0.00 | 43 | 1006.9 |
| 20260504021008 | 26 | 286 | 4.8 | 16.1 | 0.00 | 0.00 | 0.00 | 43 | 1006.9 |
| 20260504020007 | 26 | 290 | 6.4 | 11.3 | 0.00 | 0.00 | 0.00 | 43 | 1007.0 |
| 20260504014007 | 26 | 273 | 4.8 | 11.3 | 0.00 | 0.00 | 0.00 | 41 | 1007.1 |
| 20260504013006 | 27 | 269 | 4.8 | 16.1 | 0.00 | 0.00 | 0.00 | 41 | 1007.1 |
| 20260504012007 | 27 | 291 | 9.7 | 19.3 | 0.00 | 0.00 | 0.00 | 42 | 1007.5 |
| 20260504005007 | 27 | 281 | 8.0 | 19.3 | 0.00 | 0.00 | 0.00 | 38 | 1007.5 |